Wind_Speed
18 20 23 25 27 29 32 33 34 35 35 35 35 35 34 34 34 34 33 30 28 28 28 30 31 32 33 34 34 35 35 35 36 37 37 36 36 35 35 35 34 35 36 37
14 17 19 21 23 26 29 30 31 32 33 33 33 34 33 33 33 32 31 30 29 29 30 32 32 32 33 34 35 35 36 36 37 37 37 36 35 35 34 34 34 34 34 35
11 13 15 17 20 23 26 27 28 29 30 31 32 32 32 32 31 31 31 30 30 31 32 34 33 33 34 35 36 36 36 36 36 36 36 35 34 34 34 33 33 33 34 34
10 11 13 15 17 19 22 24 25 25 26 27 29 31 31 31 32 32 32 32 33 34 34 33 32 33 34 36 36 36 35 35 35 35 34 33 33 32 32 33 33 34 34 34
10 12 14 15 15 17 19 20 21 22 22 24 26 29 30 30 32 33 33 33 33 32 31 31 30 31 33 34 35 35 34 33 33 32 32 32 31 32 32 33 33 34 34 34
10 11 12 13 14 15 17 18 19 20 20 22 24 25 27 28 28 29 30 29 29 29 28 28 29 30 32 33 33 33 32 32 32 32 31 31 31 31 32 32 33 34 35 35
9 11 11 12 13 13 15 15 16 17 17 18 20 21 22 23 24 24 25 26 26 26 26 27 28 30 31 31 31 31 31 31 31 31 31 31 31 32 32 33 33 34 34 35
6 8 9 10 12 12 13 13 14 14 15 16 17 18 19 20 21 22 23 24 25 26 26 27 28 28 29 30 30 30 30 31 31 31 31 31 32 32 33 33 34 34 35 35
5 6 8 10 11 12 12 12 13 14 14 15 16 17 18 20 21 22 23 24 25 25 26 27 28 29 29 30 30 30 31 31 32 32 32 32 33 33 34 34 35 35 35 35
5 4 7 9 11 11 12 12 13 14 16 16 16 18 18 19 20 22 24 25 26 27 28 29 30 30 31 32 32 32 33 34 34 35 35 35 35 35 36 36 36 36 36 36
5 6 6 8 9 10 12 13 14 16 18 20 20 21 21 22 24 25 26 27 28 30 31 32 33 34 35 35 36 36 37 37 38 38 38 39 39 38 38 38 38 37 37 36
7 8 9 11 11 12 13 15 17 20 21 23 25 26 24 25 27 28 30 31 32 33 35 36 37 39 40 41 42 42 42 42 42 42 42 42 42 41 41 40 40 39 37 37
9 10 11 12 15 16 17 19 21 23 25 26 28 31 30 31 31 32 33 35 36 37 38 40 42 44 45 46 47 47 47 47 46 46 45 45 44 43 43 42 41 40 38 37
11 12 14 16 18 20 21 23 25 28 29 30 31 33 35 35 36 37 37 38 40 41 43 45 47 49 50 51 52 52 52 52 51 50 49 47 46 45 44 43 42 41 39 38
13 14 16 18 20 22 23 24 25 28 30 33 33 35 36 36 38 39 40 42 44 45 47 49 51 53 54 55 56 57 57 56 55 54 52 50 49 48 46 45 43 42 40 38
17 18 20 21 23 24 25 26 27 29 31 33 35 36 37 38 40 42 44 46 48 50 52 54 56 58 59 60 61 60 60 60 59 57 55 54 53 50 48 46 44 42 40 38
20 21 22 22 24 26 27 28 29 31 32 34 36 38 39 40 42 45 48 51 53 55 57 59 61 62 64 65 65 65 64 64 63 61 59 57 55 53 50 48 45 42 40 38
21 22 24 24 25 28 28 29 30 33 35 36 38 40 42 44 46 49 53 56 58 61 62 64 66 68 69 70 70 69 68 67 65 64 62 60 57 54 51 49 45 42 40 38
22 24 26 27 29 31 32 34 36 37 39 41 42 44 46 49 51 53 57 61 64 67 69 70 72 73 73 73 73 71 70 69 67 65 62 59 56 53 49 47 44 41 39 37
24 26 28 30 32 35 37 39 41 43 45 45 47 50 53 57 59 60 63 66 68 70 72 73 74 75 75 74 73 71 69 66 63 60 57 55 52 49 46 44 42 40 38 37
24 27 29 31 34 37 40 41 43 45 48 50 53 56 59 62 64 67 69 71 73 74 75 75 74 74 73 71 69 66 63 60 57 55 53 51 48 46 44 42 41 40 38 36
28 29 31 33 36 39 41 43 45 48 50 53 57 60 63 66 69 71 73 74 75 76 75 74 72 70 66 64 61 58 55 53 51 50 48 46 45 43 42 41 41 40 40 36
30 32 34 36 38 41 43 46 48 51 54 57 61 65 68 71 73 75 75 75 74 72 70 67 64 61 57 54 52 49 47 46 44 43 42 41 41 40 40 41 41 40 39 38
32 34 36 38 40 42 45 48 52 55 59 63 66 70 73 75 75 75 73 69 66 62 59 57 55 52 48 45 43 42 40 39 39 39 39 38 38 38 38 39 40 41 39 37
34 37 39 41 43 45 48 52 56 60 63 67 70 72 73 73 71 67 62 58 55 53 50 48 46 43 40 39 38 38 39 39 38 38 36 36 35 35 35 37 38 39 40 37
37 39 42 44 47 50 53 57 62 65 69 71 73 72 70 67 62 58 54 50 47 45 44 42 41 39 37 37 37 38 38 38 37 36 35 34 31 31 32 34 37 38 38 38
Wind_Direction
230 231 231 233 234 237 241 243 246 248 251 254 258 261 263 265 267 269 273 277 280 284 289 292 293 292 292 293 293 296 298 300 301 303 303 303 302 301 299 297 294 291 288 285
227 229 232 234 235 236 240 243 246 248 250 252 254 257 260 262 265 268 272 276 280 285 288 290 291 289 290 292 295 297 300 302 304 306 306 306 305 304 302 299 296 293 289 286
240 240 239 237 237 238 241 245 248 250 252 253 254 254 256 260 264 269 273 278 281 284 286 287 287 287 289 292 295 298 301 303 305 307 307 308 307 306 304 301 299 295 291 288
252 253 249 248 248 248 248 251 254 255 256 256 257 256 255 259 265 269 273 277 280 283 283 284 285 286 289 293 295 298 301 303 305 307 308 309 309 308 306 303 301 298 294 291
263 262 260 257 257 258 259 261 263 264 264 263 262 262 262 263 266 269 272 275 277 279 280 280 283 286 288 291 295 297 301 303 305 307 308 309 310 310 309 307 305 301 298 295
262 263 264 263 263 265 268 270 271 271 270 268 267 267 268 268 268 270 272 274 276 277 277 279 282 285 287 289 292 295 298 300 303 304 306 308 309 310 310 310 308 305 301 297
262 263 267 269 271 274 277 278 279 278 275 273 273 272 272 272 271 271 273 274 275 276 277 279 281 283 284 285 288 291 295 298 300 303 304 306 307 308 310 311 310 308 304 300
273 272 273 274 276 279 282 284 285 284 282 280 279 277 277 276 275 274 274 275 277 279 280 281 281 281 282 283 287 291 294 297 299 300 302 304 305 307 309 310 310 309 306 303
293 282 280 279 280 283 287 286 289 290 288 285 284 284 282 282 283 282 281 281 282 282 281 279 280 281 283 286 290 292 294 296 298 300 302 303 305 306 308 309 309 309 308 305
321 305 292 294 294 295 295 296 294 294 294 291 288 287 290 290 292 291 289 288 287 286 283 282 284 286 288 290 293 295 296 298 299 301 302 304 304 305 306 307 308 308 308 306
335 327 314 309 307 304 302 299 296 295 295 296 296 293 297 298 296 294 292 291 289 288 287 288 290 291 293 295 297 298 299 300 301 302 303 304 304 304 305 305 306 306 306 306
321 316 311 309 309 305 301 300 298 297 298 298 300 301 301 299 296 294 292 291 290 290 291 292 294 296 298 299 299 300 300 301 301 301 301 302 302 302 303 304 304 304 305 305
314 306 301 301 304 304 302 301 300 300 300 301 302 302 302 300 298 296 294 292 291 291 292 294 295 296 298 298 299 299 300 299 299 299 299 299 299 299 299 300 301 301 302 303
310 306 302 302 301 300 300 300 299 299 299 299 299 298 298 297 296 294 293 292 291 291 293 294 295 295 296 297 297 297 297 297 297 296 296 296 296 296 296 297 298 298 299 300
309 307 303 301 300 299 298 296 293 293 295 295 296 294 294 293 292 292 292 291 291 291 291 292 292 293 293 294 294 294 294 294 294 294 294 293 293 293 293 293 295 295 295 297
312 310 308 306 303 303 302 300 298 295 294 294 294 293 293 292 292 291 291 291 291 291 291 291 291 291 292 292 292 292 291 292 292 292 291 291 291 290 290 289 290 290 290 292
313 310 309 309 306 305 303 303 300 299 299 298 298 298 297 295 295 294 294 293 293 292 292 291 291 291 291 291 291 290 290 291 291 291 290 289 288 287 286 285 285 285 285 286
313 311 311 310 307 305 306 303 302 302 301 300 299 300 299 298 297 296 294 294 294 293 292 291 291 291 291 291 291 291 291 290 290 290 289 288 286 284 282 280 278 278 278 280
316 314 313 313 311 310 310 310 309 308 306 306 305 303 300 298 297 294 292 292 292 292 291 291 291 291 291 291 291 290 290 290 289 288 287 286 284 281 277 274 272 270 270 272
317 315 314 314 313 313 312 312 312 311 308 307 304 301 299 298 297 296 294 293 293 293 293 292 292 292 292 292 291 291 290 289 288 287 286 284 280 275 272 268 265 261 261 263
316 316 315 315 313 312 313 312 312 308 307 306 304 304 303 302 301 300 299 298 297 296 296 295 294 294 294 293 292 292 291 289 288 287 286 282 277 272 267 263 258 254 252 255
321 319 318 317 316 314 315 313 311 310 309 308 308 307 306 304 303 302 300 300 299 298 297 297 296 296 295 295 294 293 291 290 289 287 285 281 274 269 263 257 252 247 244 246
324 323 321 321 319 318 318 317 315 314 313 312 310 309 308 306 305 304 303 302 301 300 300 299 298 298 297 296 295 294 293 291 290 287 284 280 273 267 262 255 248 242 240 240
324 324 324 323 322 321 320 319 318 317 315 314 312 311 309 308 307 306 306 305 304 304 303 302 301 300 299 297 296 296 295 293 292 289 285 279 273 266 261 253 244 238 233 233
327 327 326 325 325 324 322 321 320 318 317 315 314 313 312 311 310 309 309 308 307 307 306 305 305 304 302 299 298 297 296 295 294 291 286 281 275 266 259 249 240 233 226 223
329 328 328 327 327 326 325 324 322 320 319 318 317 316 315 314 314 314 313 312 311 310 309 308 307 305 304 302 300 298 297 297 296 293 288 282 276 268 258 247 236 227 220 216
Height
5860 5863 5864 5866 5868 5870 5871 5873 5875 5876 5877 5878 5878 5879 5879 5879 5879 5878 5878 5877 5877 5876 5874 5872 5869 5866 5864 5861 5858 5855 5853 5851 5848 5846 5843 5840 5838 5835 5833 5831 5828 5826 5824 5822
5859 5860 5861 5863 5864 5866 5867 5868 5869 5871 5872 5872 5873 5873 5873 5873 5872 5872 5872 5872 5871 5870 5868 5866 5863 5861 5858 5855 5852 5849 5846 5843 5840 5838 5835 5832 5829 5827 5825 5822 5820 5818 5816 5814
5857 5859 5859 5860 5861 5862 5863 5864 5865 5866 5866 5867 5868 5868 5868 5867 5867 5866 5866 5866 5865 5863 5862 5860 5857 5854 5851 5848 5845 5842 5839 5836 5833 5830 5827 5824 5821 5818 5816 5814 5812 5810 5808 5806
5857 5858 5858 5859 5859 5859 5860 5860 5861 5861 5862 5862 5863 5862 5863 5862 5862 5861 5861 5860 5859 5857 5856 5853 5851 5848 5845 5842 5839 5836 5833 5830 5827 5823 5820 5817 5814 5811 5809 5806 5803 5801 5799 5797
5856 5857 5857 5857 5858 5857 5857 5857 5857 5857 5857 5857 5857 5857 5858 5857 5857 5856 5855 5854 5853 5851 5850 5848 5845 5842 5839 5836 5833 5830 5827 5823 5820 5817 5813 5810 5807 5804 5801 5798 5796 5793 5790 5787
5855 5855 5856 5856 5855 5855 5855 5855 5854 5854 5853 5853 5852 5852 5852 5851 5851 5851 5850 5849 5847 5846 5844 5842 5839 5837 5833 5830 5827 5824 5821 5817 5814 5811 5807 5804 5801 5798 5794 5791 5788 5784 5781 5778
5854 5854 5854 5854 5853 5853 5853 5852 5851 5850 5849 5849 5848 5848 5848 5846 5846 5845 5844 5843 5842 5840 5838 5835 5833 5830 5827 5824 5821 5818 5815 5811 5808 5804 5801 5797 5794 5791 5787 5784 5780 5777 5773 5769
5853 5853 5852 5852 5851 5851 5850 5850 5849 5848 5847 5846 5844 5844 5844 5842 5841 5840 5839 5837 5835 5833 5831 5829 5826 5823 5820 5817 5814 5811 5808 5805 5801 5798 5794 5790 5787 5783 5780 5776 5772 5769 5765 5761
5852 5852 5851 5850 5849 5848 5848 5847 5846 5845 5843 5842 5841 5840 5839 5837 5836 5835 5833 5831 5829 5827 5824 5821 5818 5816 5813 5810 5807 5803 5800 5797 5793 5790 5786 5783 5779 5775 5772 5768 5764 5760 5756 5752
5851 5851 5850 5848 5847 5846 5846 5844 5843 5842 5840 5839 5838 5836 5836 5834 5832 5830 5827 5825 5822 5819 5816 5813 5810 5807 5804 5801 5798 5795 5792 5788 5785 5781 5777 5774 5770 5767 5763 5759 5755 5751 5747 5743
5849 5849 5848 5847 5845 5844 5843 5842 5840 5838 5836 5834 5832 5833 5831 5828 5826 5823 5820 5817 5814 5811 5807 5804 5801 5798 5795 5792 5789 5785 5782 5779 5775 5772 5768 5764 5761 5757 5754 5750 5746 5742 5738 5734
5848 5847 5846 5845 5843 5841 5840 5838 5836 5834 5832 5829 5827 5827 5824 5821 5818 5815 5812 5808 5805 5801 5798 5795 5791 5788 5784 5781 5778 5775 5771 5768 5765 5761 5758 5754 5751 5747 5744 5740 5737 5733 5729 5725
5847 5846 5844 5842 5842 5839 5836 5834 5831 5829 5827 5824 5821 5820 5815 5812 5809 5806 5803 5799 5795 5792 5788 5785 5781 5777 5774 5770 5767 5763 5760 5757 5753 5750 5747 5744 5740 5737 5734 5730 5727 5723 5719 5715
5845 5843 5842 5840 5837 5835 5832 5830 5826 5823 5820 5818 5815 5811 5807 5804 5800 5797 5793 5789 5785 5782 5778 5774 5770 5766 5762 5758 5754 5750 5747 5744 5741 5738 5735 5732 5729 5726 5723 5719 5716 5713 5710 5706
5842 5841 5838 5836 5833 5830 5828 5826 5822 5819 5815 5811 5808 5804 5800 5796 5792 5787 5783 5779 5775 5771 5767 5763 5758 5754 5750 5746 5741 5737 5733 5730 5727 5724 5721 5718 5716 5713 5711 5708 5705 5702 5699 5696
5839 5837 5834 5832 5828 5825 5822 5819 5816 5813 5809 5805 5800 5796 5792 5787 5783 5778 5773 5769 5764 5759 5754 5750 5744 5739 5735 5730 5726 5722 5718 5715 5711 5708 5706 5704 5701 5699 5697 5695 5694 5691 5689 5686
5835 5833 5830 5827 5823 5819 5817 5814 5809 5805 5801 5797 5792 5788 5782 5778 5773 5767 5761 5756 5750 5745 5739 5734 5729 5723 5718 5713 5708 5704 5701 5697 5694 5691 5688 5686 5685 5684 5683 5681 5680 5679 5678 5676
5831 5828 5824 5822 5819 5815 5814 5807 5803 5798 5793 5788 5783 5778 5772 5767 5762 5755 5748 5742 5736 5729 5723 5717 5711 5705 5699 5694 5689 5684 5681 5677 5674 5672 5669 5667 5666 5666 5666 5666 5666 5666 5665 5665
5826 5823 5819 5816 5812 5808 5804 5799 5794 5789 5784 5778 5772 5767 5761 5754 5750 5744 5734 5727 5719 5712 5704 5697 5690 5684 5678 5672 5667 5663 5660 5656 5653 5651 5649 5647 5646 5646 5647 5648 5649 5651 5652 5653
5822 5818 5815 5810 5805 5800 5797 5790 5784 5780 5773 5767 5761 5755 5748 5741 5734 5729 5719 5710 5702 5693 5685 5677 5669 5662 5656 5650 5644 5641 5637 5633 5631 5629 5627 5626 5625 5626 5628 5630 5633 5635 5638 5640
5818 5814 5809 5804 5799 5793 5788 5782 5777 5771 5765 5756 5748 5741 5732 5724 5715 5707 5698 5688 5679 5670 5661 5653 5646 5639 5632 5626 5621 5618 5614 5611 5609 5607 5606 5605 5605 5607 5609 5613 5616 5620 5624 5627
5812 5808 5803 5798 5792 5788 5780 5773 5768 5761 5752 5743 5735 5726 5716 5707 5697 5687 5677 5667 5657 5647 5638 5629 5622 5616 5610 5604 5599 5596 5593 5590 5587 5586 5585 5585 5585 5587 5591 5595 5599 5604 5609 5613
5806 5801 5796 5791 5786 5778 5770 5763 5756 5748 5740 5730 5721 5711 5699 5688 5677 5666 5655 5645 5634 5625 5616 5608 5600 5595 5591 5585 5580 5578 5575 5572 5570 5568 5567 5567 5567 5569 5572 5576 5582 5587 5593 5600
5800 5794 5789 5783 5776 5770 5762 5754 5745 5736 5726 5715 5704 5692 5680 5668 5656 5644 5633 5623 5613 5605 5596 5589 5583 5578 5574 5570 5566 5562 5560 5557 5554 5553 5551 5551 5551 5552 5555 5559 5565 5572 5579 5587
5794 5788 5781 5775 5768 5761 5753 5744 5734 5723 5712 5700 5688 5674 5660 5647 5636 5624 5614 5605 5596 5589 5581 5575 5569 5564 5560 5557 5553 5550 5546 5543 5541 5539 5537 5536 5536 5537 5539 5544 5550 5558 5566 5575
5788 5782 5774 5767 5759 5751 5742 5732 5720 5709 5696 5683 5670 5657 5643 5628 5617 5607 5599 5590 5583 5576 5569 5563 5558 5553 5549 5545 5542 5538 5534 5530 5528 5526 5524 5522 5522 5523 5525 5530 5537 5545 5554 5564